Flag for Norway Weather past 2 weeks in Kleppestø, Norway

Now
66 °F

Mild.


Feels Like: 66 °F
Forecast: 57 / 64 °F
Wind: 5 mph from Southeast

Location: Bergen / Florida

Current Time: Aug 3, 2015 at 11:43:46 PM

Latest Report: Aug 3, 2015 at 10:00 PM


Visibility: N/A

Pressure: 29.90 "Hg

Humidity: 34%

Dew point: 37 °F

Location of KleppestøLocation

Historic Weather in Kleppestø — Graph

°F

Kleppestø temperature yesterday

Maximum temperature yesterday: 62 °F (at 4:00 PM)
Minimum temperature yesterday: 49 °F (at 7:00 AM)
Average temperature yesterday: 55 °F

Past Weeks' High & Low Weather Summary

 TemperatureHumidityPressure
High71 °F (Jul 29, 12:00 PM)89% (Jul 25, 6:00 AM)30.13 "Hg (Jul 25, 6:00 AM)
Low46 °F (Jul 25, 6:00 AM)31% (Aug 3, 7:00 PM)29.41 "Hg (Jul 29, 10:00 AM)
Average57 °F71%29.74 "Hg
* Reported Jul 19 10:00 PM — Aug 3 10:00 PM, Kleppestø, Weather by CustomWeather, © 2015

Note: Actual official high and low records may vary slightly from our data, if they occured in-between our weather recording intervals... More about our weather records

Advertising

Kleppestø weather history for previous 24 hours

 ConditionsComfort  
Time TempWeatherWind HumidityBarometerVisibility
10:00 PM
Mon, Aug 3
66 °FMild.5 mph34%29.90 "HgN/A
9:00 PM67 °FMild.6 mph33%29.90 "HgN/A
8:00 PM68 °FPassing clouds.5 mph31%29.92 "Hg31 mi
7:00 PM71 °FMild.6 mph31%29.93 "HgN/A
6:00 PM70 °FMild.5 mph36%29.96 "HgN/A
5:00 PM70 °FPartly sunny.5 mph34%29.99 "Hg25 mi
4:00 PM66 °FMild.3 mph33%30.02 "HgN/A
3:00 PM65 °FMild.5 mph34%30.04 "HgN/A
2:00 PM64 °FPartly sunny.6 mph33%30.05 "Hg25 mi
1:00 PM62 °FRefreshingly cool.1 mph43%30.06 "HgN/A
12:00 PM60 °FRefreshingly cool.2 mph52%30.06 "HgN/A
11:00 AM56 °FLight rain. Overcast.2 mph74%30.08 "Hg19 mi
10:00 AM55 °FCool.2 mph73%30.09 "HgN/A
9:00 AM54 °FCool.No wind78%30.10 "HgN/A
8:00 AM53 °FCool.1 mph83%30.09 "HgN/A
7:00 AM51 °FCool.1 mph85%30.09 "HgN/A
6:00 AM49 °FCool.No wind85%30.09 "HgN/A
5:00 AM49 °FCool.1 mph84%30.10 "HgN/A
4:00 AM49 °FCool.1 mph84%30.11 "HgN/A
3:00 AM49 °FCool.1 mph84%30.12 "HgN/A
2:00 AM49 °FCool.1 mph83%30.13 "HgN/A
1:00 AM49 °FCool.2 mph82%30.13 "HgN/A
12:00 AM50 °FCool.1 mph78%30.13 "HgN/A
11:00 PM
Sun, Aug 2
51 °FClear.2 mph75%30.13 "Hg37 mi
Weather by CustomWeather, © 2015

See weather overviewHow to use our weather pages